Weather in Radomyshl

Ukraine / Zhytomyr Region     50°30′07″N   29°14′35″E
temp.,
°C
wind,
m/s
gust,
m/s
humid.,
%
clouds,
%
prec.,
mm/h
press.,
hPa
HPBL,
m
28 november, sun
sun2823:00+3w22891 0.0 100319
02:00+2s22895 0.0 100410
05:00+3s34899 0.0 100347
08:00+3sse3491100 0.0 100470
11:00+7se4776100 0.0 1003236
14:00+9se51072100 0.0 1001378
17:00+7se41179100 0.0 1000294
20:00+7sse4118747 0.0 1000304
29 november, mon
mon2923:00+7sse3894100 0.0 999187
02:00+9sse61093100 0.0 997468
05:00+8sse61089100 0.0 996583
08:00+8se51192100 0.0 994397
11:00+10sse61285100 0.0 992604
14:00+9sse4784100 0.1 988693
17:00+8wsw2491100 0.2 986179
20:00+4wnw91392100 0.4 987670
30 november, tue
tue3023:00+1w101796100 3.2 990950
02:00+2w101782100 4.5 9921224
05:00+1w111880100 0.0 9941305
08:00+1w111773100 0.1 9971191
11:00+1w10167799 0.0 9991332
14:00+2w8147756 0.1 9981320
17:000w713735 0.1 1001840
20:00−1w613775 0.1 1001654
1 december, wed
wed123:00−1wsw61283100 0.0 1000662
02:00−1wsw61379100 0.0 998742
05:00−1sw71496100 0.6 996800
08:00+1w61292100 1.4 997855
11:00+1w6129398 0.1 999743
14:00+1w51097100 0.3 1001819
17:00+1w51194100 0.4 1002604
20:00+1sw4890100 0.4 1003422
2 december, thu
thu223:00+1ssw61498100 1.1 1002589
02:00+4sw81586100 2.4 1000707
05:00+4sw81778100 0.0 1000684
08:00+4sw7147999 0.0 1001568
11:00+5sw6127990 0.0 1002552
14:00+6sw61176100 0.0 1001574
17:00+4ssw4118130 0.0 1002289
20:00+3ssw41186100 0.0 1002235